Location: Ward Pound Ridge Reservation
(41.2500°N, 73.6000°W)
Time: 10:46:00
(UTC-05:00)

OTV 5 (USA 277) - Pass Details

Date: 09 October 2017
Orbit: 404 x 417 km, 43.0° (Epoch: 07 September)

Event Time Altitude Azimuth Distance (km) Brightness Sun altitude
Rises 20:34:01 0° 247° (WSW) 2,348 ? -25.4°
Reaches altitude 10° 20:36:08 10° 245° (WSW) 1,486 ? -25.8°
Enters shadow 20:37:20 20° 242° (WSW) 1,012 ? -26.0°
